When you browse on this site, cookies collect data to enhance your experience and personalize the content and advertising you see.
Visit our Privacy Policy to learn more. By continuing to use the site, you agree to this use of cookies and data.
  • In Hungary
  • List of Countries
  • For 7 days
  • Water Temperature
  • Weather Map
  • News
  • Weather Widgets
  • user-avatar
    Login

    Hourly Weather Malanow

    Today, 10 April, Friday

    Time Temperature Precipitation Wind Pressure Humidity
    00:00 +7°C° 0 mm 3 mps 754 mmHg 62%
    01:00 +5°C° 0 mm 3 mps 754 mmHg 62%
    02:00 +5°C° 0 mm 2 mps 754 mmHg 66%
    03:00 +5°C° 0 mm 2 mps 754 mmHg 70%
    04:00 +4°C° 0 mm 2 mps 754 mmHg 74%
    05:00 +5°C° 0 mm 2 mps 755 mmHg 72%
    06:00 +5°C° 0 mm 2 mps 755 mmHg 70%
    07:00 +6°C° 0 mm 2 mps 755 mmHg 67%
    08:00 +7°C° 0 mm 2 mps 755 mmHg 61%
    09:00 +9°C° 0 mm 2 mps 755 mmHg 54%
    10:00 +10°C° 0 mm 3 mps 755 mmHg 47%
    11:00 +11°C° 0 mm 3 mps 755 mmHg 44%
    12:00 +12°C° 0 mm 3 mps 755 mmHg 41%
    13:00 +13°C° 0 mm 3 mps 755 mmHg 37%
    14:00 +13°C° 0 mm 3 mps 754 mmHg 38%
    15:00 +13°C° 0 mm 3 mps 754 mmHg 39%
    16:00 +13°C° 0 mm 3 mps 753 mmHg 40%
    17:00 +11°C° 0 mm 3 mps 754 mmHg 43%
    18:00 +10°C° 0 mm 2 mps 754 mmHg 47%
    19:00 +9°C° 0 mm 2 mps 754 mmHg 50%
    20:00 +9°C° 0 mm 1 mps 754 mmHg 51%
    21:00 +9°C° 0 mm 1 mps 754 mmHg 51%
    22:00 +8°C° 0 mm 1 mps 754 mmHg 52%
    23:00 +8°C° 0 mm 1 mps 754 mmHg 54%

    Tomorrow, 11 April, Saturday

    Time Temperature Precipitation Wind Pressure Humidity
    00:00 +7°C° 0 mm 1 mps 754 mmHg 55%
    01:00 +7°C° 0 mm 1 mps 755 mmHg 57%
    02:00 +6°C° 0 mm 1 mps 755 mmHg 61%
    03:00 +5°C° 0 mm 1 mps 755 mmHg 64%
    04:00 +5°C° 0 mm 1 mps 755 mmHg 67%
    05:00 +5°C° 0 mm 2 mps 755 mmHg 66%
    06:00 +5°C° 0 mm 2 mps 755 mmHg 65%
    07:00 +6°C° 0 mm 2 mps 756 mmHg 63%
    08:00 +8°C° 0 mm 2 mps 756 mmHg 58%
    09:00 +9°C° 0 mm 2 mps 756 mmHg 52%
    10:00 +11°C° 0 mm 3 mps 756 mmHg 47%
    11:00 +12°C° 0 mm 2 mps 756 mmHg 44%
    12:00 +13°C° 0 mm 2 mps 756 mmHg 42%
    13:00 +14°C° 0 mm 2 mps 756 mmHg 39%
    14:00 +14°C° 0 mm 2 mps 756 mmHg 39%
    15:00 +14°C° 0 mm 2 mps 756 mmHg 39%
    16:00 +14°C° 0 mm 2 mps 755 mmHg 38%
    17:00 +13°C° 0 mm 2 mps 755 mmHg 42%
    18:00 +10°C° 0 mm 3 mps 755 mmHg 46%
    19:00 +9°C° 0 mm 3 mps 755 mmHg 50%
    20:00 +8°C° 0 mm 3 mps 755 mmHg 49%
    21:00 +8°C° 0 mm 3 mps 755 mmHg 48%
    22:00 +7°C° 0 mm 3 mps 755 mmHg 47%
    23:00 +7°C° 0 mm 3 mps 755 mmHg 47%

    Day after tomorrow, 12 April, Sunday

    Time Temperature Precipitation Wind Pressure Humidity
    00:00 +7°C° 0 mm 3 mps 755 mmHg 47%
    01:00 +7°C° 0 mm 3 mps 754 mmHg 47%
    02:00 +5°C° 0 mm 3 mps 754 mmHg 50%
    03:00 +5°C° 0 mm 3 mps 754 mmHg 53%
    04:00 +5°C° 0 mm 3 mps 753 mmHg 56%
    05:00 +5°C° 0 mm 3 mps 753 mmHg 58%
    06:00 +7°C° 0 mm 3 mps 753 mmHg 59%
    07:00 +8°C° 0 mm 3 mps 753 mmHg 60%
    08:00 +10°C° 0 mm 2 mps 752 mmHg 54%
    09:00 +13°C° 0 mm 2 mps 752 mmHg 49%
    10:00 +15°C° 0 mm 2 mps 752 mmHg 43%
    11:00 +16°C° 0 mm 2 mps 751 mmHg 41%
    12:00 +17°C° 0 mm 2 mps 751 mmHg 39%
    13:00 +18°C° 0 mm 3 mps 750 mmHg 37%
    14:00 +18°C° 0 mm 3 mps 749 mmHg 38%
    15:00 +18°C° 0 mm 3 mps 749 mmHg 39%
    16:00 +18°C° 0 mm 3 mps 748 mmHg 40%
    17:00 +17°C° 0 mm 3 mps 748 mmHg 45%
    18:00 +15°C° 0 mm 2 mps 747 mmHg 49%
    19:00 +14°C° 0 mm 2 mps 747 mmHg 54%
    20:00 +13°C° 0 mm 2 mps 747 mmHg 56%
    21:00 +12°C° 0 mm 2 mps 747 mmHg 57%
    22:00 +11°C° 0 mm 3 mps 746 mmHg 59%
    23:00 +11°C° 0 mm 3 mps 746 mmHg 65%

    13 April, Monday

    Time Temperature Precipitation Wind Pressure Humidity
    00:00 +10°C° 0 mm 3 mps 746 mmHg 71%
    01:00 +10°C° 0 mm 4 mps 745 mmHg 77%
    02:00 +10°C° 0 mm 4 mps 745 mmHg 81%
    03:00 +9°C° 0 mm 3 mps 744 mmHg 84%
    04:00 +9°C° 0 mm 3 mps 744 mmHg 87%
    05:00 +10°C° 0 mm 4 mps 744 mmHg 83%
    06:00 +11°C° 0 mm 4 mps 743 mmHg 79%
    07:00 +12°C° 0 mm 4 mps 743 mmHg 75%
    08:00 +14°C° 0 mm 4 mps 742 mmHg 69%
    09:00 +17°C° 0 mm 4 mps 742 mmHg 63%
    10:00 +18°C° 0 mm 4 mps 741 mmHg 56%
    11:00 +19°C° 0.3 mm 5 mps 741 mmHg 54%
    12:00 +19°C° 0.3 mm 6 mps 741 mmHg 51%
    13:00 +20°C° 0.3 mm 7 mps 740 mmHg 49%
    14:00 +17°C° 0.4 mm 7 mps 740 mmHg 54%
    15:00 +16°C° 0.4 mm 7 mps 740 mmHg 60%
    16:00 +15°C° 0.4 mm 7 mps 740 mmHg 65%
    17:00 +11°C° 0.4 mm 7 mps 740 mmHg 71%
    18:00 +8°C° 0.4 mm 7 mps 741 mmHg 78%
    19:00 +5°C° 0.4 mm 7 mps 742 mmHg 84%
    20:00 +4°C° 0 mm 7 mps 743 mmHg 80%
    21:00 +2°C° 0 mm 7 mps 744 mmHg 75%
    22:00 0°C° 0 mm 7 mps 745 mmHg 71%
    23:00 -1°C° 0 mm 6 mps 745 mmHg 71%

    14 April, Tuesday

    Time Temperature Precipitation Wind Pressure Humidity
    00:00 -1°C° 0 mm 5 mps 746 mmHg 71%
    01:00 -1°C° 0 mm 4 mps 746 mmHg 71%
    02:00 -2°C° 0 mm 4 mps 746 mmHg 71%
    03:00 -2°C° 0 mm 3 mps 747 mmHg 71%
    04:00 -2°C° 0 mm 3 mps 747 mmHg 71%
    05:00 -2°C° 0 mm 4 mps 747 mmHg 66%
    06:00 -1°C° 0 mm 5 mps 747 mmHg 60%
    07:00 -1°C° 0 mm 6 mps 748 mmHg 55%
    08:00 +1°C° 0 mm 6 mps 748 mmHg 49%
    09:00 +2°C° 0 mm 6 mps 748 mmHg 44%
    10:00 +3°C° 0 mm 7 mps 748 mmHg 38%
    11:00 +4°C° 0 mm 7 mps 748 mmHg 38%
    12:00 +4°C° 0 mm 6 mps 749 mmHg 37%
    13:00 +5°C° 0 mm 6 mps 749 mmHg 37%
    14:00 +5°C° 0 mm 6 mps 749 mmHg 38%
    15:00 +5°C° 0 mm 6 mps 749 mmHg 39%
    16:00 +5°C° 0 mm 6 mps 749 mmHg 40%
    17:00 +5°C° 0 mm 5 mps 749 mmHg 44%
    18:00 +4°C° 0 mm 4 mps 750 mmHg 48%
    19:00 +3°C° 0 mm 4 mps 750 mmHg 52%
    20:00 +2°C° 0 mm 3 mps 750 mmHg 54%
    21:00 +1°C° 0 mm 3 mps 751 mmHg 56%
    22:00 +1°C° 0 mm 2 mps 751 mmHg 59%
    23:00 -1°C° 0 mm 2 mps 751 mmHg 60%

    15 April, Wednesday

    Time Temperature Precipitation Wind Pressure Humidity
    00:00 +1°C° 0 mm 1 mps 751 mmHg 61%
    01:00 0°C° 0 mm 1 mps 751 mmHg 63%
    02:00 0°C° 0 mm 1 mps 751 mmHg 62%
    03:00 -2°C° 0 mm 2 mps 752 mmHg 62%
    04:00 -2°C° 0 mm 2 mps 752 mmHg 61%
    05:00 -1°C° 0 mm 2 mps 752 mmHg 56%
    06:00 +1°C° 0 mm 2 mps 752 mmHg 50%
    07:00 +1°C° 0 mm 3 mps 752 mmHg 45%
    08:00 +3°C° 0 mm 3 mps 752 mmHg 40%
    09:00 +5°C° 0 mm 3 mps 752 mmHg 36%
    10:00 +7°C° 0 mm 3 mps 752 mmHg 31%
    11:00 +8°C° 0 mm 3 mps 752 mmHg 32%
    12:00 +8°C° 0 mm 4 mps 751 mmHg 32%
    13:00 +10°C° 0 mm 4 mps 751 mmHg 32%
    14:00 +10°C° 0 mm 4 mps 751 mmHg 34%
    15:00 +10°C° 0 mm 3 mps 751 mmHg 37%
    16:00 +10°C° 0 mm 3 mps 751 mmHg 39%
    17:00 +9°C° 0 mm 3 mps 751 mmHg 44%
    18:00 +7°C° 0 mm 2 mps 751 mmHg 50%
    19:00 +6°C° 0 mm 2 mps 751 mmHg 56%
    20:00 +5°C° 0 mm 2 mps 751 mmHg 60%
    21:00 +5°C° 0 mm 2 mps 751 mmHg 64%
    22:00 +4°C° 0 mm 2 mps 752 mmHg 68%
    23:00 +3°C° 0 mm 2 mps 752 mmHg 69%
    Show more